Погода в Аршиновке

Россия / Пензенская область     53°36′17″N   43°58′57″E
темп.,
°C
ветер,
м/с
пор.,
м/с
влажн.,
%
обл.,
%
осадки,
мм/ч
давл.,
гПа
погр.,
м
12 апреля, пн
пн1200:00+5св4996100 0.5 1031318
03:00+4всв51097100 0.5 1031241
06:00+5всв51198100 0.0 1032304
09:00+7всв6109598 0.0 1032340
12:00+10в6882100 0.0 1032452
15:00+16в5863100 0.0 1031680
18:00+14в4876100 0.0 1030151
21:00+11вюв4108684 0.0 1032170
13 апреля, вт
вт1300:00+9вюв4118616 0.0 1032172
03:00+8юв497943 0.0 1032121
06:00+7юв4107673 0.0 1032147
09:00+12юв6105543 0.0 1032371
12:00+17юв683979 0.0 1031756
15:00+18ююв57335 0.0 10301226
18:00+15юв47495 0.0 1029145
21:00+11юв486191 0.0 1030112
14 апреля, ср
ср1400:00+9юв496888 0.0 1029138
03:00+7юв4771100 0.0 1028105
06:00+6вюв47715 0.0 1028113
09:00+12юв59510 0.0 1027368
12:00+16юв68370 0.0 1025950
15:00+18юв67330 0.0 10241286
18:00+15юв47475 0.0 1022152
21:00+11юв46625 0.0 102381
15 апреля, чт
чт1500:00+9юв35715 0.0 102277
03:00+7юв33770 0.0 102234
06:00+6юв34810 0.0 102149
09:00+12юв35610 0.0 1020320
12:00+16юв44440 0.0 10191138
15:00+18ююв23370 0.0 10181472
18:00+17вюв12465 0.0 101711
21:00+13в335716 0.0 101732
16 апреля, пт
пт1600:00+11в336763 0.0 101733
03:00+9вюв337578 0.0 101728
06:00+9в347896 0.0 101755
09:00+14вюв355899 0.0 1016283
12:00+18вюв344299 0.0 1016774
15:00+20вюв223733 0.0 10151891
18:00+17св234797 0.0 101537
21:00+13ссв357198 0.9 1016116